Location: Georgenberg
(48.1500°N, 16.2500°E)
Time: 14:57:39
(UTC+01:00)

N. Korean satellite - Pass Details

Date: 02 December 2022
Orbit: 407 x 441 km, 97.3° (Epoch: 05 February)

Event Time Altitude Azimuth Distance (km) Brightness Sun altitude
Rises 05:39:42 0° 8° (N) 2,532 10.1 -16.9°
Reaches altitude 10° 05:41:48 10° 3° (N) 1,646 9.1 -16.6°
Maximum altitude 05:45:15 52° 287° (WNW) 592 6.6 -16.0°
Drops below altitude 10° 05:48:38 10° 210° (SSW) 1,614 9.1 -15.5°
Sets 05:50:40 0° 206° (SSW) 2,476 10.1 -15.1°
